Weather History for MROC - December, 2012

Change the Weather History Date:

Saturday, December 15, 2012

  Actual Average Record
Temperature  
Mean Temperature 75 °F -  
Max Temperature 83 °F 80 °F 86 °F (2005)
Min Temperature 67 °F 64 °F 57 °F (2005)
Cooling Degree Days 10    
Growing Degree Days 25 (Base 50)    
Moisture  
Dew Point 61 °F    
Average Humidity 66    
Maximum Humidity 78    
Minimum Humidity 39    
Precipitation  
Precipitation 0.00 in 0.03 in - ()
Sea Level Pressure  
Sea Level Pressure 29.94 in    
Wind  
Wind Speed 9 mph ()    
Max Wind Speed 16 mph    
Max Gust Speed 29 mph    
Visibility 7.7 miles    
Events      
Averages and records for this station are not official NWS values.
T = Trace of Precipitation, MM = Missing Value Source: Averaged Metar Reports

Daily Weather History Graph

Daily Weather History Graph

Search for Another Location

Airport or City:

Trip Planner

Search our weather history database for the weather conditions in past years. The results will help you decide how hot, cold, wet, or windy it might be!

Date:

Astronomy

Dec. 15, 2012 Rise Set
Actual Time 5:45 AM CST 5:18 PM CST
Civil Twilight 5:23 AM CST 5:41 PM CST
Nautical Twilight 4:56 AM CST 6:07 PM CST
Astronomical Twilight 4:30 AM CST 6:34 PM CST
Moon 7:55 AM CST (12/15) 7:59 PM CST (12/15)
Length of Visible Light 12h 18m
Length of Day
11h 32m
Waxing Crescent, 8% of the Moon is Illuminated
Dec 15
Waxing Crescent
Dec 19
First Quarter
Dec 28
Full
Jan 4
Last Quarter
Jan 11
New

Hourly Weather History & Observations

Time (CST) Temp. Heat Index Dew Point Humidity Pressure Visibility Wind Dir Wind Speed Gust Speed Precip Events Conditions
12:00 AM 68 °F - 61 °F 73% 29.85 in 12 mi ENE 5.8 mph - -   Scattered Clouds
12:00 AM 68.0 °F - 60.8 °F 78% 30.02 in 6.2 mi ENE 5.8 mph - N/A   Scattered Clouds
1:00 AM 68.0 °F - 60.8 °F 78% 30.00 in 6.2 mi ENE 13.8 mph - N/A   Scattered Clouds
2:00 AM 68.0 °F - 60.8 °F 78% 29.98 in 6.2 mi ENE 6.9 mph - N/A   Scattered Clouds
3:00 AM 68 °F - 60 °F 68% 29.82 in 12 mi ESE 16.1 mph - -   Scattered Clouds
3:00 AM 68.0 °F - 60.8 °F 78% 29.97 in 6.2 mi ESE 16.1 mph - N/A   Scattered Clouds
4:00 AM 68.0 °F - 59.0 °F 73% 29.97 in 6.2 mi East 16.1 mph - N/A   Scattered Clouds
5:00 AM 68.0 °F - 60.8 °F 78% 29.97 in 6.2 mi East 15.0 mph - N/A   Scattered Clouds
6:00 AM 69 °F - 61 °F 69% 29.85 in 12 mi East 3.5 mph - -   Scattered Clouds
6:00 AM 69.8 °F - 60.8 °F 73% 29.98 in 6.2 mi East 3.5 mph - N/A   Mostly Cloudy
7:00 AM 71.6 °F - 60.8 °F 69% 30.00 in 6.2 mi ESE 11.5 mph - N/A   Mostly Cloudy
8:00 AM 75.2 °F - 62.6 °F 65% 30.02 in 6.2 mi East 12.7 mph 24.2 mph N/A   Mostly Cloudy
9:00 AM 77 °F - 62 °F 51% 29.85 in 12 mi ESE 12.7 mph - -   Scattered Clouds
9:00 AM 77.0 °F - 62.6 °F 61% 30.01 in 6.2 mi ESE 12.7 mph - N/A   Mostly Cloudy
10:00 AM 77.0 °F - 62.6 °F 61% 30.02 in 6.2 mi ESE 11.5 mph - N/A   Mostly Cloudy
11:00 AM 77.0 °F - 60.8 °F 57% 29.99 in 6.2 mi ESE 11.5 mph - N/A   Mostly Cloudy
12:00 PM 80 °F - 61 °F 41% 29.82 in 12 mi East 15.0 mph - -   Scattered Clouds
12:00 PM 80.6 °F 81.5 °F 60.8 °F 51% 29.96 in 6.2 mi East 15.0 mph - N/A   Scattered Clouds
1:00 PM 82.4 °F 82.9 °F 60.8 °F 48% - 6.2 mi ESE 13.8 mph 28.8 mph N/A   Scattered Clouds
2:00 PM 82.4 °F 82.9 °F 60.8 °F 48% 29.91 in 6.2 mi SE 11.5 mph - N/A   Partly Cloudy
3:00 PM 82 °F - 61 °F 39% 29.75 in 12 mi SSE 11.5 mph - -   Partly Cloudy
3:00 PM 82.4 °F 82.9 °F 60.8 °F 48% 29.91 in - SSE 11.5 mph 23.0 mph N/A   Scattered Clouds
4:00 PM 75.2 °F - 62.6 °F 65% 29.91 in 6.2 mi SE 9.2 mph - N/A   Scattered Clouds
5:00 PM 73.4 °F - 60.8 °F 65% 29.93 in 6.2 mi ESE 8.1 mph - N/A   Scattered Clouds
6:00 PM 71 °F - 61 °F 63% 29.81 in 12 mi SE 6.9 mph - -   Scattered Clouds
6:00 PM 71.6 °F - 60.8 °F 69% 29.96 in 6.2 mi SE 6.9 mph - N/A   Scattered Clouds
7:00 PM 69.8 °F - 60.8 °F 73% 29.99 in 6.2 mi ESE 2.3 mph - N/A   Partly Cloudy
8:00 PM 68.0 °F - 60.8 °F 78% 30.02 in - ESE 3.5 mph - N/A   Clear
9:00 PM 68 °F - 60 °F 69% 29.90 in 12 mi ESE 9.2 mph - -   Scattered Clouds
9:00 PM 68.0 °F - 60.8 °F 78% 30.03 in 6.2 mi ESE 3.5 mph - N/A   Scattered Clouds
10:00 PM 68.0 °F - 60.8 °F 78% 30.02 in 6.2 mi ENE 4.6 mph - N/A   Scattered Clouds
11:00 PM 68.0 °F - 59.0 °F 73% 30.01 in 6.2 mi ENE 8.1 mph - N/A   Scattered Clouds